| time (UTC) | temp C | wind direction | speed KPH | gust KPH | rain 1hr cm | rain 24hr cm | rain mn cm | humidity % | barometer mb |
| 20260507110030 | 6 | 0 | 0.0 | 0.0 | 0.00 | 0.00 | 0.00 | 87 | 1020.9 |
| 20260507104528 | 6 | 0 | 0.0 | 0.0 | 0.00 | 0.00 | 0.00 | 87 | 1020.9 |
| 20260507103027 | 7 | 0 | 0.0 | 0.0 | 0.00 | 0.00 | 0.00 | 86 | 1021.0 |
| 20260507101530 | 7 | 0 | 0.0 | 0.0 | 0.00 | 0.00 | 0.00 | 85 | 1021.0 |
| 20260507100036 | 7 | 0 | 0.0 | 0.0 | 0.00 | 0.00 | 0.00 | 85 | 1021.0 |
| 20260507094528 | 7 | 0 | 0.0 | 0.0 | 0.00 | 0.00 | 0.00 | 84 | 1021.0 |
| 20260507093030 | 8 | 0 | 0.0 | 0.0 | 0.00 | 0.00 | 0.00 | 84 | 1021.0 |
| 20260507091527 | 8 | 0 | 0.0 | 0.0 | 0.00 | 0.00 | 0.00 | 83 | 1021.0 |
| 20260507090029 | 8 | 0 | 0.0 | 0.0 | 0.00 | 0.00 | 0.00 | 82 | 1021.1 |
| 20260507084528 | 9 | 0 | 0.0 | 1.6 | 0.00 | 0.00 | 0.00 | 81 | 1021.1 |
| 20260507083028 | 10 | 0 | 0.0 | 3.2 | 0.00 | 0.00 | 0.00 | 80 | 1021.2 |
| 20260507081533 | 10 | 0 | 0.0 | 4.8 | 0.00 | 0.00 | 0.00 | 79 | 1021.1 |
| 20260507080030 | 10 | 0 | 0.0 | 0.0 | 0.00 | 0.00 | 0.00 | 79 | 1021.1 |
| 20260507074533 | 11 | 0 | 0.0 | 8.0 | 0.00 | 0.00 | 0.00 | 78 | 1021.1 |
| 20260507073030 | 11 | 209 | 1.6 | 9.7 | 0.00 | 0.00 | 0.00 | 79 | 1021.0 |
| 20260507071534 | 11 | 134 | 0.0 | 12.9 | 0.00 | 0.00 | 0.00 | 78 | 1020.9 |
| 20260507070033 | 11 | 242 | 3.2 | 12.9 | 0.00 | 0.00 | 0.00 | 78 | 1020.8 |
| 20260507064540 | 11 | 209 | 3.2 | 12.9 | 0.00 | 0.00 | 0.00 | 79 | 1021.0 |
| 20260507063030 | 11 | 246 | 1.6 | 8.0 | 0.00 | 0.00 | 0.00 | 79 | 1020.9 |
| 20260507061533 | 11 | 144 | 1.6 | 6.4 | 0.00 | 0.00 | 0.00 | 80 | 1021.0 |
| 20260507060028 | 11 | 294 | 1.6 | 12.9 | 0.00 | 0.00 | 0.00 | 81 | 1021.0 |
| 20260507054528 | 11 | 214 | 1.6 | 12.9 | 0.00 | 0.00 | 0.00 | 82 | 1021.1 |
| 20260507053034 | 11 | 207 | 1.6 | 16.1 | 0.00 | 0.00 | 0.00 | 82 | 1021.1 |
| 20260507051528 | 11 | 213 | 3.2 | 9.7 | 0.00 | 0.00 | 0.00 | 81 | 1021.1 |
| 20260507050032 | 12 | 211 | 1.6 | 11.3 | 0.00 | 0.00 | 0.00 | 81 | 1021.1 |
| 20260507044529 | 12 | 235 | 1.6 | 9.7 | 0.00 | 0.00 | 0.00 | 81 | 1021.1 |
| 20260507043031 | 12 | 224 | 4.8 | 11.3 | 0.00 | 0.00 | 0.00 | 81 | 1021.2 |
| 20260507041541 | 12 | 221 | 3.2 | 8.0 | 0.00 | 0.00 | 0.00 | 81 | 1021.1 |
| 20260507040030 | 12 | 240 | 3.2 | 9.7 | 0.00 | 0.00 | 0.00 | 81 | 1021.0 |
| 20260507034532 | 12 | 0 | 4.8 | 11.3 | 0.00 | 0.00 | 0.00 | 80 | 1020.9 |
| 20260507033030 | 12 | 190 | 4.8 | 14.5 | 0.00 | 0.00 | 0.00 | 79 | 1020.8 |
| 20260507031528 | 12 | 197 | 3.2 | 14.5 | 0.00 | 0.00 | 0.00 | 79 | 1020.7 |
| 20260507030029 | 12 | 242 | 4.8 | 9.7 | 0.00 | 0.00 | 0.00 | 78 | 1020.6 |
| 20260507024532 | 13 | 235 | 3.2 | 11.3 | 0.00 | 0.00 | 0.00 | 78 | 1020.5 |
| 20260507023028 | 13 | 218 | 1.6 | 6.4 | 0.00 | 0.00 | 0.00 | 77 | 1020.3 |
| 20260507021530 | 13 | 265 | 3.2 | 9.7 | 0.00 | 0.00 | 0.00 | 77 | 1020.2 |
| 20260507020032 | 13 | 242 | 3.2 | 12.9 | 0.00 | 0.00 | 0.00 | 76 | 1020.4 |
| 20260507014528 | 13 | 0 | 3.2 | 11.3 | 0.00 | 0.00 | 0.00 | 75 | 1020.3 |
| 20260507013033 | 13 | 0 | 3.2 | 12.9 | 0.00 | 0.00 | 0.00 | 75 | 1020.2 |
| 20260507011528 | 14 | 267 | 4.8 | 12.9 | 0.00 | 0.00 | 0.00 | 74 | 1020.3 |
| 20260507010033 | 14 | 201 | 4.8 | 20.9 | 0.00 | 0.00 | 0.00 | 74 | 1020.3 |
| 20260507004530 | 14 | 249 | 1.6 | 12.9 | 0.00 | 0.00 | 0.00 | 74 | 1020.3 |
| 20260507003027 | 14 | 204 | 4.8 | 12.9 | 0.00 | 0.00 | 0.00 | 74 | 1020.4 |
| 20260507001533 | 15 | 221 | 4.8 | 14.5 | 0.00 | 0.00 | 0.00 | 75 | 1020.5 |
| 20260507000030 | 15 | 214 | 4.8 | 14.5 | 0.00 | 0.00 | 0.00 | 74 | 1020.5 |
| 20260506234544 | 15 | 232 | 6.4 | 14.5 | 0.00 | 0.00 | 0.00 | 73 | 1020.5 |
| 20260506233030 | 15 | 138 | 4.8 | 14.5 | 0.00 | 0.00 | 0.00 | 72 | 1020.5 |
| 20260506231529 | 15 | 248 | 6.4 | 16.1 | 0.00 | 0.00 | 0.00 | 71 | 1020.4 |
| 20260506230029 | 16 | 230 | 3.2 | 14.5 | 0.00 | 0.00 | 0.00 | 71 | 1020.3 |
| 20260506224530 | 15 | 254 | 1.6 | 17.7 | 0.00 | 0.00 | 0.00 | 72 | 1020.4 |
| 20260506223032 | 15 | 258 | 4.8 | 12.9 | 0.00 | 0.00 | 0.00 | 72 | 1020.4 |
| 20260506221527 | 15 | 209 | 4.8 | 16.1 | 0.00 | 0.00 | 0.00 | 73 | 1020.6 |
| 20260506220036 | 15 | 285 | 4.8 | 12.9 | 0.00 | 0.00 | 0.00 | 71 | 1020.5 |
| 20260506214530 | 15 | 242 | 8.0 | 22.5 | 0.00 | 0.00 | 0.00 | 70 | 1020.6 |
| 20260506213028 | 16 | 224 | 6.4 | 16.1 | 0.00 | 0.00 | 0.00 | 68 | 1020.6 |
| 20260506211527 | 15 | 194 | 4.8 | 19.3 | 0.00 | 0.00 | 0.00 | 71 | 1020.5 |
| 20260506210030 | 14 | 172 | 6.4 | 14.5 | 0.00 | 0.00 | 0.00 | 75 | 1020.6 |
| 20260506204535 | 14 | 0 | 4.8 | 12.9 | 0.00 | 0.00 | 0.00 | 77 | 1020.6 |
| 20260506203028 | 13 | 288 | 4.8 | 22.5 | 0.00 | 0.00 | 0.00 | 78 | 1020.6 |
| 20260506201528 | 13 | 296 | 4.8 | 19.3 | 0.00 | 0.00 | 0.00 | 79 | 1020.5 |
| 20260506200030 | 13 | 190 | 1.6 | 14.5 | 0.00 | 0.00 | 0.00 | 79 | 1020.6 |
| 20260506194535 | 13 | 201 | 4.8 | 16.1 | 0.00 | 0.00 | 0.00 | 80 | 1020.4 |
| 20260506193030 | 13 | 219 | 3.2 | 16.1 | 0.00 | 0.00 | 0.00 | 81 | 1020.5 |
| 20260506191530 | 12 | 225 | 1.6 | 9.7 | 0.00 | 0.00 | 0.00 | 83 | 1020.4 |
| 20260506190027 | 12 | 242 | 3.2 | 20.9 | 0.00 | 0.00 | 0.00 | 84 | 1020.5 |
| 20260506184530 | 12 | 199 | 4.8 | 14.5 | 0.00 | 0.00 | 0.00 | 84 | 1020.5 |
| 20260506183030 | 12 | 143 | 6.4 | 22.5 | 0.00 | 0.00 | 0.00 | 85 | 1020.1 |
| 20260506181530 | 12 | 199 | 1.6 | 14.5 | 0.00 | 0.00 | 0.00 | 86 | 1020.2 |
| 20260506180030 | 12 | 0 | 1.6 | 11.3 | 0.00 | 0.00 | 0.00 | 87 | 1020.3 |
| 20260506174529 | 12 | 132 | 3.2 | 12.9 | 0.00 | 0.00 | 0.00 | 87 | 1020.2 |
| 20260506173030 | 11 | 163 | 1.6 | 8.0 | 0.00 | 0.00 | 0.00 | 88 | 1020.4 |
| 20260506171530 | 11 | 209 | 1.6 | 12.9 | 0.00 | 0.00 | 0.00 | 88 | 1020.3 |
| 20260506170029 | 11 | 267 | 1.6 | 11.3 | 0.00 | 0.00 | 0.00 | 89 | 1020.3 |
| 20260506164528 | 11 | 153 | 3.2 | 12.9 | 0.00 | 0.00 | 0.00 | 89 | 1020.2 |
| 20260506163030 | 11 | 203 | 3.2 | 8.0 | 0.00 | 0.00 | 0.00 | 89 | 1020.2 |
| 20260506161532 | 11 | 209 | 1.6 | 9.7 | 0.00 | 0.00 | 0.00 | 90 | 1020.1 |
| 20260506160038 | 11 | 215 | 1.6 | 8.0 | 0.00 | 0.00 | 0.00 | 90 | 1020.2 |
| 20260506154532 | 10 | 210 | 1.6 | 9.7 | 0.00 | 0.00 | 0.00 | 90 | 1020.0 |
| 20260506153029 | 11 | 174 | 0.0 | 8.0 | 0.00 | 0.00 | 0.00 | 91 | 1019.9 |
| 20260506151532 | 10 | 249 | 0.0 | 4.8 | 0.00 | 0.00 | 0.00 | 91 | 1019.9 |
| 20260506150029 | 10 | 215 | 0.0 | 8.0 | 0.00 | 0.00 | 0.00 | 90 | 1020.0 |
| 20260506144527 | 10 | 243 | 1.6 | 6.4 | 0.00 | 0.00 | 0.00 | 90 | 1019.6 |
| 20260506143033 | 10 | 213 | 3.2 | 8.0 | 0.00 | 0.00 | 0.00 | 90 | 1019.4 |
| 20260506141528 | 10 | 230 | 1.6 | 6.4 | 0.00 | 0.00 | 0.00 | 90 | 1019.5 |
| 20260506140030 | 10 | 0 | 1.6 | 8.0 | 0.00 | 0.00 | 0.00 | 90 | 1019.5 |
| 20260506134530 | 10 | 204 | 6.4 | 11.3 | 0.00 | 0.00 | 0.00 | 90 | 1019.5 |
| 20260506133030 | 10 | 0 | 1.6 | 6.4 | 0.00 | 0.00 | 0.00 | 90 | 1019.4 |
| 20260506131543 | 10 | 0 | 0.0 | 6.4 | 0.00 | 0.00 | 0.00 | 90 | 1019.2 |
| 20260506130037 | 11 | 223 | 3.2 | 6.4 | 0.00 | 0.00 | 0.00 | 90 | 1019.1 |
| 20260506124531 | 11 | 0 | 1.6 | 9.7 | 0.00 | 0.00 | 0.00 | 89 | 1018.9 |
| 20260506123028 | 11 | 238 | 1.6 | 6.4 | 0.00 | 0.00 | 0.00 | 89 | 1018.8 |
| 20260506121530 | 11 | 227 | 3.2 | 9.7 | 0.00 | 0.00 | 0.00 | 89 | 1018.7 |
| 20260506120028 | 11 | 248 | 1.6 | 6.4 | 0.00 | 0.00 | 0.00 | 90 | 1018.6 |
| 20260506114528 | 11 | 0 | 0.0 | 6.4 | 0.00 | 0.00 | 0.00 | 90 | 1018.6 |
| 20260506113030 | 11 | 192 | 0.0 | 3.2 | 0.00 | 0.00 | 0.00 | 90 | 1018.7 |
| 20260506111532 | 11 | 0 | 0.0 | 3.2 | 0.00 | 0.00 | 0.00 | 90 | 1018.6 |